Theta_e
324 321 327 322 306 303 299 300 308 307 308 310 311 309 314 320 316 312 325 323 331 338 339 345 346 348 348 347 346 345 343 345 343 345 346 344 343 342 340 338 337 336 335 333 333 335 335 333 330
319 322 323 316 301 297 299 304 304 307 308 310 311 317 310 314 313 316 317 325 330 338 340 340 343 347 347 346 346 345 344 344 345 345 345 344 344 343 341 338 336 336 334 334 334 332 329 330 331
320 323 313 306 301 297 298 303 305 307 308 307 309 320 314 309 313 312 316 323 333 337 339 340 343 346 346 345 345 346 345 345 346 346 344 344 343 342 340 338 336 335 335 334 335 334 330 330 329
319 317 311 301 299 302 302 303 304 305 307 308 310 309 311 313 311 314 316 318 322 331 339 340 344 345 345 345 344 345 347 345 346 344 343 343 342 341 341 337 336 336 336 335 332 331 329 329 327
320 313 302 299 299 303 304 304 304 302 304 305 308 308 313 313 315 315 315 316 319 322 328 333 340 342 343 343 343 343 344 345 345 344 342 341 342 341 340 338 337 337 336 333 333 330 329 328 327
308 309 298 297 299 302 303 304 303 303 303 304 304 305 313 316 312 312 314 315 317 319 319 322 324 329 337 340 341 341 343 343 344 344 342 341 340 340 339 338 338 336 334 333 332 330 329 328 327
306 302 298 297 297 298 300 305 302 302 303 303 306 302 311 314 311 312 313 315 317 317 319 318 321 321 324 334 336 338 339 341 342 340 341 339 338 339 338 336 337 337 334 332 331 329 328 327 326
307 302 296 297 296 296 301 303 303 303 302 307 307 302 303 308 310 312 313 314 315 316 317 318 318 320 320 322 328 331 334 336 338 337 335 332 332 334 334 332 334 336 335 333 331 329 328 327 326
308 298 296 296 295 298 302 300 305 306 303 304 306 305 307 309 310 310 310 311 312 313 315 316 317 318 318 319 322 328 329 331 332 332 329 329 335 334 331 328 330 333 333 333 332 329 328 328 328
303 298 297 300 301 299 301 301 302 302 302 303 304 307 308 308 308 307 307 307 309 310 313 314 315 317 318 318 320 322 333 337 336 336 336 336 335 334 329 325 326 330 329 331 332 330 329 326 323
301 298 300 300 302 302 301 301 303 301 300 302 300 302 305 305 306 305 306 307 308 310 312 313 314 315 316 318 320 322 325 336 336 336 336 337 335 335 329 330 328 329 322 327 328 327 326 324 323
298 300 301 301 302 301 300 302 300 301 301 303 303 304 304 304 304 305 305 306 308 309 310 312 314 314 314 317 317 319 324 326 335 335 335 336 335 333 328 328 329 330 327 326 326 326 326 324 324
299 300 301 302 302 301 301 300 300 300 302 304 304 303 303 303 304 305 306 306 306 306 308 310 312 313 313 314 315 317 319 324 329 334 334 334 332 330 330 327 327 327 327 325 324 325 324 323 322
301 301 300 301 301 301 298 299 300 302 302 302 302 302 302 302 303 304 303 303 305 305 306 309 310 311 312 311 313 314 317 321 326 330 334 331 331 329 327 325 325 326 327 325 324 323 323 322 322
301 297 299 300 300 299 300 296 297 301 302 301 301 301 301 302 303 303 302 302 304 306 307 307 309 310 309 310 311 311 314 317 323 324 333 332 330 328 327 327 325 326 327 325 324 323 323 321 322
297 297 294 299 298 300 298 293 299 300 300 299 299 299 300 301 302 303 303 302 304 305 305 306 307 308 308 308 309 310 311 314 320 327 330 330 329 327 326 325 325 325 326 324 323 322 321 321 321
295 293 292 293 298 297 296 294 299 300 300 298 299 298 299 299 301 303 304 303 302 303 304 305 305 305 306 307 308 309 310 310 316 324 328 327 326 327 327 326 325 325 325 323 322 321 321 320 321
293 291 291 291 296 296 295 294 299 300 298 298 298 298 298 298 299 301 303 303 302 301 302 303 304 306 305 306 307 308 310 310 314 322 328 328 326 326 326 325 323 324 323 322 322 322 323 321 321
294 292 291 293 295 293 294 294 297 300 298 297 297 296 297 297 299 299 302 304 302 302 301 302 304 304 304 303 303 305 307 311 315 321 328 328 328 326 325 324 323 323 321 322 322 323 322 320 322
293 291 291 293 294 292 293 293 297 299 297 298 297 296 296 297 296 297 300 303 303 301 300 302 302 302 303 303 304 306 308 312 320 325 327 327 328 326 325 324 323 322 321 321 322 322 321 321 322
292 291 288 289 293 295 292 294 293 296 298 298 298 298 298 296 294 295 297 300 302 301 299 299 301 301 302 302 303 307 310 312 314 320 324 327 327 326 324 323 323 321 321 319 321 323 321 318 321
288 292 291 290 289 288 292 287 286 294 294 296 297 297 297 295 295 295 296 297 299 300 301 300 301 301 301 302 304 307 308 311 318 323 325 325 326 324 324 323 322 321 321 320 321 322 321 320 317
289 292 291 290 289 289 290 286 296 291 290 293 297 296 295 294 294 295 296 296 299 301 301 300 300 300 300 302 308 310 310 314 320 323 322 323 325 325 323 322 322 321 320 321 321 320 319 320 318
294 291 290 291 290 284 287 286 293 291 292 294 296 296 293 293 294 295 296 297 298 300 301 300 298 299 299 301 304 309 311 312 313 313 313 314 316 316 318 320 320 319 317 315 314 313 312 312 311
292 289 287 286 284 284 286 284 290 294 294 295 295 295 293 293 293 294 294 295 296 298 298 299 297 297 298 299 300 302 307 309 308 309 310 310 309 310 311 312 312 312 312 312 311 310 309 308 308
290 289 285 280 281 283 284 282 291 295 296 297 296 296 293 293 293 293 294 294 295 297 298 298 296 296 297 297 298 299 301 305 306 307 307 307 307 308 310 310 309 309 309 309 308 307 306 306 305
289 285 289 283 281 281 287 289 293 293 293 294 295 295 293 292 292 292 293 294 295 297 297 297 296 295 296 296 297 297 298 299 301 303 304 304 305 305 306 306 305 305 305 305 304 303 302 302 302
290 291 284 285 280 279 285 284 287 289 291 293 294 294 293 293 292 292 293 293 294 296 298 298 298 295 295 295 295 296 296 297 298 299 298 299 300 301 301 301 301 301 301 301 301 300 300 298 298
286 286 287 286 284 280 279 286 293 294 294 294 295 296 294 292 292 292 292 293 294 296 297 297 297 297 295 295 295 294 295 295 295 295 296 296 297 297 297 297 297 297 297 297 296 296 296 295 295
291 289 289 284 281 284 282 283 292 295 295 296 296 296 294 293 293 292 292 293 293 294 296 297 297 296 297 295 295 294 294 294 294 294 295 296 295 296 295 294 294 294 294 295 294 293 294 293 293
Wind_Speed
12 7 5 6 7 5 4 3 3 3 3 8 9 6 9 11 8 6 9 18 19 15 9 11 9 9 9 10 9 8 6 10 12 12 13 11 11 12 12 10 8 8 8 8 5 7 11 9 6
7 5 5 4 7 7 3 5 6 4 7 9 5 5 5 6 8 6 10 21 19 17 10 7 12 10 10 10 9 9 9 9 12 13 12 12 13 13 12 11 8 8 7 8 7 6 5 7 6
9 7 5 5 5 6 4 3 3 5 3 8 6 6 6 5 10 9 15 17 19 15 9 8 11 11 11 11 11 11 11 11 11 12 13 12 13 14 12 11 9 8 9 8 8 9 7 5 5
5 6 4 8 8 4 4 3 5 5 3 4 6 3 6 8 5 12 16 16 13 16 17 7 6 11 11 12 12 12 12 11 11 10 11 12 12 13 14 12 8 8 9 9 8 6 6 5 4
6 4 7 6 4 3 2 4 5 5 3 5 8 3 2 5 11 15 16 15 14 12 14 18 11 9 12 13 13 12 12 12 11 12 12 12 14 13 12 12 10 9 9 9 8 7 6 4 3
5 4 6 8 5 3 2 5 4 4 3 5 7 9 1 8 16 17 16 15 13 11 13 14 16 19 13 14 13 13 12 13 12 12 13 13 12 11 11 11 10 10 9 9 9 7 5 4 3
8 5 6 4 2 4 2 5 3 5 6 4 10 8 5 1 18 18 16 14 12 12 10 12 11 14 16 13 11 13 14 13 12 12 12 11 11 11 11 10 9 10 10 9 9 7 5 4 3
6 4 2 1 3 3 3 3 3 5 4 6 8 5 7 17 19 17 15 13 12 11 11 11 9 11 10 12 14 11 13 13 10 11 10 10 10 11 9 8 8 11 10 10 9 7 5 4 3
2 5 4 2 3 5 2 3 4 2 7 2 4 5 10 16 17 16 15 13 12 12 12 13 11 8 10 10 10 12 11 12 10 9 9 10 10 11 12 12 10 9 11 12 11 9 5 2 3
4 5 4 3 4 1 1 4 5 5 3 2 7 10 13 15 15 16 16 15 15 16 15 12 13 13 10 7 10 9 12 11 11 11 14 11 11 9 10 10 10 10 9 11 11 10 7 4 7
2 3 5 4 3 2 2 4 2 6 6 5 12 15 16 15 15 14 14 15 17 17 13 14 14 13 13 10 4 4 5 6 8 14 13 11 8 6 5 6 6 7 8 6 7 7 6 8 5
3 2 1 3 2 2 2 4 3 3 5 7 10 13 15 16 15 15 16 15 15 17 18 17 15 14 14 10 9 7 5 6 7 10 13 9 6 7 6 5 8 7 7 7 6 5 6 5 4
3 4 3 4 3 1 3 3 6 3 3 7 10 12 14 14 15 14 14 16 16 14 16 18 17 15 13 13 10 9 8 7 7 11 11 8 8 8 7 5 5 7 6 6 6 7 5 5 6
3 5 4 2 1 2 5 2 3 4 5 8 8 11 11 11 13 13 13 16 16 15 15 16 17 16 14 11 13 11 10 8 7 7 10 9 8 8 5 5 6 7 6 6 6 6 5 5 5
5 4 4 6 1 2 5 8 8 1 5 8 9 9 10 12 13 13 13 14 16 14 16 16 18 17 16 15 12 10 10 10 8 6 12 11 9 9 9 8 7 8 7 8 6 6 4 4 5
3 3 5 8 2 4 4 2 5 2 6 7 6 7 8 12 13 12 12 12 15 16 16 17 15 17 15 14 11 9 10 11 9 7 7 12 12 13 11 10 7 7 7 7 6 6 6 5 5
5 5 6 3 3 1 4 8 6 4 5 7 4 4 6 8 11 12 12 12 14 15 14 17 16 14 14 14 11 10 11 10 11 9 6 10 12 12 11 8 6 7 6 7 7 6 6 5 5
3 5 3 6 4 6 10 15 6 6 6 7 4 4 6 8 10 11 13 12 12 11 13 16 15 16 16 10 10 9 8 9 11 10 8 13 10 14 10 6 6 2 4 5 6 7 6 5 4
2 3 6 3 1 5 8 11 10 7 9 9 6 5 7 10 12 13 12 12 12 14 13 15 17 18 12 8 8 8 8 8 11 11 13 13 13 14 12 7 9 7 7 7 8 7 7 6 4
1 2 5 4 1 5 10 15 14 12 12 8 7 7 9 11 12 13 13 13 14 14 16 16 16 17 12 9 8 8 7 8 9 9 11 12 14 12 11 11 9 10 6 7 8 8 5 5 5
3 3 3 5 8 8 12 9 4 6 10 10 10 7 7 9 11 12 14 13 14 16 13 15 16 16 13 14 10 8 8 8 8 7 9 11 12 11 12 13 11 9 8 6 6 8 8 5 4
6 2 3 4 7 4 4 7 4 8 11 12 10 6 5 7 9 10 13 14 14 15 13 14 15 15 13 14 10 10 7 8 8 7 8 8 11 11 11 10 11 11 8 8 7 7 6 4 4
3 1 3 3 7 7 6 3 2 5 9 13 9 5 3 5 8 10 12 13 12 13 14 14 15 14 16 15 13 3 7 7 4 4 8 7 9 9 9 9 9 9 7 7 4 3 4 2 2
5 2 4 4 4 4 5 3 5 6 5 8 9 6 3 2 6 7 10 11 12 13 13 14 16 16 17 17 18 12 6 5 4 8 7 5 6 6 5 6 7 7 7 10 8 11 11 10 8
5 4 2 3 2 2 3 5 11 6 7 7 9 6 3 1 5 8 10 12 13 14 14 14 17 17 17 18 19 17 13 12 12 11 8 10 9 9 10 13 11 10 13 13 13 12 12 13 9
10 3 3 4 3 4 4 8 3 1 6 7 5 5 3 2 2 5 8 10 11 13 13 14 16 17 18 19 18 17 17 10 10 12 11 10 11 10 14 15 15 16 17 16 14 10 10 11 8
6 6 3 2 2 3 5 7 12 7 8 9 9 8 6 4 1 3 6 8 10 10 12 13 14 15 18 18 15 17 15 15 14 13 16 12 14 14 17 17 16 17 16 14 13 10 11 9 7
4 3 3 2 2 5 3 7 9 9 14 12 12 11 8 5 4 1 4 7 8 9 9 11 12 11 13 15 15 14 16 16 16 15 19 17 15 15 15 14 15 14 13 13 12 8 8 9 7
6 5 4 4 3 3 5 4 3 6 10 13 13 11 9 8 6 4 3 4 6 7 8 10 11 12 12 11 13 15 14 16 15 14 14 14 14 14 14 13 15 14 13 11 11 9 10 11 9
5 9 11 5 6 4 1 9 2 2 5 7 10 11 10 8 7 5 4 3 4 6 7 8 9 10 10 9 10 11 13 13 14 14 14 14 13 14 14 14 14 13 12 10 10 11 10 10 9
Wind_Direction
285 253 265 250 245 237 245 150 7 179 188 13 311 292 19 20 7 17 335 13 348 329 322 179 200 201 191 177 191 191 206 185 186 186 177 178 167 162 158 149 145 149 134 149 160 134 105 109 117
287 243 233 267 255 241 123 78 201 40 354 330 315 321 207 83 44 351 1 349 340 320 325 232 177 209 195 194 193 198 193 204 190 195 195 181 182 170 164 156 160 147 148 145 142 136 147 143 126
249 233 242 239 259 273 26 83 4 331 353 359 323 38 15 23 31 0 350 346 343 333 334 315 177 194 203 204 201 204 202 200 206 203 198 193 186 174 165 159 165 173 159 154 134 140 145 142 144
211 197 225 249 246 96 4 72 351 323 148 17 350 164 99 51 17 355 344 344 354 343 337 324 242 217 212 213 211 214 209 204 201 211 205 195 187 177 164 163 174 164 161 158 152 140 152 156 162
227 249 239 245 250 78 106 15 329 319 346 344 334 334 152 80 15 358 346 343 349 351 344 349 325 269 233 223 219 216 219 207 207 196 206 193 182 173 171 166 177 166 168 156 142 147 159 168 170
217 284 239 238 172 124 129 2 318 307 331 355 335 319 173 121 8 350 339 335 340 356 349 348 344 -0 297 238 229 220 219 215 211 200 190 191 182 178 173 177 185 168 160 155 143 150 174 179 185
279 242 288 319 168 190 66 339 353 332 291 18 335 284 355 119 353 338 331 327 329 342 353 349 346 349 347 303 248 225 222 218 212 211 196 181 183 179 182 191 197 158 173 158 159 155 186 202 205
284 269 239 218 200 144 89 331 353 349 22 332 350 359 307 343 336 329 329 325 327 331 340 338 346 340 344 334 321 248 229 222 211 214 209 200 189 180 181 197 206 168 169 161 157 156 193 220 232
297 248 223 142 200 96 89 323 96 354 284 9 340 325 332 329 328 329 331 330 335 335 336 329 330 340 334 328 324 317 241 229 207 211 207 200 207 190 185 197 179 179 174 161 162 165 187 218 226
276 265 66 30 52 53 4 309 332 295 300 242 321 326 332 331 327 328 332 331 334 331 329 325 325 323 323 313 309 316 313 239 219 216 217 215 215 198 204 191 170 175 162 158 167 166 158 204 255
15 337 130 114 60 359 326 249 306 300 245 4 322 320 325 321 327 326 325 325 325 327 324 327 325 321 316 309 291 289 290 283 241 221 211 209 205 201 177 189 178 177 167 180 176 173 213 223 245
162 90 111 132 107 206 280 316 257 334 5 330 310 320 316 330 332 331 326 326 325 330 327 326 322 318 313 309 302 295 283 281 262 234 224 199 182 185 181 194 184 189 179 202 185 231 203 213 236
116 146 139 130 171 150 287 311 302 199 350 319 326 320 329 330 329 327 330 330 322 322 324 323 323 317 312 305 296 289 280 277 278 251 230 213 176 178 176 216 180 179 196 182 176 208 199 199 234
111 155 147 161 154 203 310 285 253 166 332 317 331 333 335 329 333 326 333 324 323 321 318 317 318 315 309 299 299 292 285 277 268 271 236 204 183 171 183 186 219 196 193 186 194 195 196 203 210
140 164 205 207 158 250 314 219 225 58 305 315 346 344 351 351 342 342 339 320 318 319 321 322 318 319 310 298 284 279 283 281 273 270 241 207 177 179 188 197 206 207 192 192 188 200 195 210 214
208 248 236 134 212 142 294 309 154 237 309 320 341 4 356 5 2 352 341 334 327 322 320 316 318 319 311 302 293 276 270 271 266 260 245 185 180 167 187 213 208 201 181 190 184 183 198 213 214
192 284 231 176 197 273 240 309 128 242 288 295 319 352 354 351 3 359 351 347 341 330 334 322 318 311 305 300 295 286 268 267 265 255 219 181 172 195 185 186 222 195 179 188 183 190 196 201 216
224 244 231 267 143 240 262 268 249 243 257 274 286 310 326 334 341 341 355 353 345 333 319 321 317 316 308 295 287 278 259 252 254 251 215 186 183 192 191 172 166 286 202 191 186 194 196 213 211
304 269 278 270 74 288 255 274 273 248 242 254 272 304 326 337 338 336 334 353 355 345 334 326 317 316 312 300 283 271 258 249 234 237 206 187 180 182 185 180 177 181 200 197 199 194 200 201 208
290 301 278 266 269 286 294 283 266 242 234 255 275 294 317 321 334 336 337 340 355 342 335 327 318 318 310 297 279 266 257 264 266 214 213 185 180 176 180 181 176 170 181 191 203 195 200 209 181
192 245 277 297 317 246 302 277 224 235 225 252 260 273 292 319 328 332 341 340 345 346 334 325 321 320 316 305 282 257 243 255 263 245 203 178 181 176 179 180 183 170 168 169 217 194 189 178 191
259 166 231 300 318 310 16 291 264 218 223 232 247 255 300 325 331 336 338 338 345 349 336 337 334 327 327 315 293 247 240 241 228 200 179 175 173 169 184 174 182 178 173 178 190 203 191 185 198
36 140 269 292 283 310 158 250 228 200 238 235 229 219 283 328 333 339 337 343 348 351 342 341 342 346 340 349 341 231 240 270 341 192 141 161 166 163 167 168 167 161 169 161 166 149 83 36 4
125 224 236 256 267 254 139 248 245 201 196 194 192 187 215 309 324 339 343 348 352 353 355 350 352 356 2 9 17 19 37 43 84 73 71 65 79 75 101 151 142 134 117 108 103 93 88 83 74
212 243 274 236 213 290 156 247 266 215 184 178 181 173 180 323 337 344 357 355 358 -0 2 359 357 5 11 19 25 23 31 50 55 67 69 73 72 71 77 85 88 98 95 95 93 86 78 80 70
199 288 272 275 298 1 152 239 257 139 172 174 181 173 181 215 355 344 359 3 0 3 10 8 359 3 17 18 27 29 28 44 52 58 71 67 66 78 77 80 83 82 86 78 77 82 79 69 77
148 213 31 286 106 271 229 243 236 162 196 193 205 203 205 186 127 351 360 15 7 11 17 18 9 7 16 22 23 33 35 44 52 55 66 65 66 65 68 70 68 65 66 72 70 59 69 70 68
270 117 153 228 235 258 234 272 250 208 214 200 210 210 200 170 165 72 18 15 19 14 23 31 34 23 27 25 27 29 32 41 50 50 57 54 56 59 62 66 69 70 62 61 66 68 70 76 63
165 209 213 314 240 237 301 261 23 187 186 195 206 201 192 179 168 145 57 23 27 26 35 40 42 37 43 45 32 33 32 40 46 50 54 59 59 61 66 63 66 68 66 71 75 74 69 72 70
286 234 197 228 188 232 29 271 87 95 151 185 186 191 186 173 165 158 127 45 40 36 43 49 53 47 57 68 65 57 50 47 45 48 55 64 68 66 65 63 62 66 65 62 68 72 67 70 65